Date String (YYYY-MM-DD hh:mm:ss) UTC,Instrument flags,Ambient pressure (hPa),Sample flow (lpm),Bypass flow (lpm),Sample temperature (°C),Ambient temperature (°C),ASC tube jacket temperature (°C),LED temperature (°C),Box temperature (°C),Sample RH (%),Span deviation,Mass concentration (μg/m³),Mass concentration (μg/m³),Mass concentration (μg/m³)
DateTimeUTC,F1_M11,P_M11,Q1_M11,Q2_M11,T1_M11,T2_M11,T3_M11,T4_M11,T5_M11,U1_M11,ZSPAN_M11,X0_M11,X2_M11,X1_M11
2021-10-21 19:00:00,,0832.3,4.99,0.00,25.0,24.3,00.0,34.0,26.8,16.6,0004.7,0014.23,0004.99,0004.22
2021-10-21 19:01:00,,0832.3,5.01,0.00,25.0,24.3,00.0,34.0,26.9,16.5,0004.3,0013.48,0005.04,0004.22
2021-10-21 19:02:00,,0832.3,4.99,0.00,25.0,24.3,00.0,34.0,26.9,16.0,0004.1,0012.74,0005.05,0004.22
2021-10-21 19:03:00,,0832.3,4.99,0.00,25.0,24.4,00.0,34.0,26.8,16.1,0004.3,0012.22,0005.07,0004.21
2021-10-21 19:04:00,,0832.3,5.00,0.00,25.0,24.3,00.0,34.0,26.8,16.3,0004.4,0012.43,0005.06,0004.23
2021-10-21 19:05:00,,0832.2,5.01,0.00,25.0,24.3,00.0,34.0,26.8,16.5,0004.3,0012.25,0005.12,0004.28
2021-10-21 19:06:00,,0832.1,5.00,0.00,25.0,24.4,00.0,34.0,26.9,16.3,0004.4,0011.35,0005.15,0004.31
2021-10-21 19:07:00,,0832.1,5.00,0.00,25.0,24.4,00.0,34.0,26.8,16.3,0004.4,0011.57,0005.18,0004.34
2021-10-21 19:08:00,,0832.1,4.99,0.00,25.0,24.4,00.0,34.0,26.9,16.5,0003.9,0012.57,0005.22,0004.38
2021-10-21 19:09:00,,0832.1,5.00,0.00,25.0,24.3,00.0,34.0,26.8,16.6,0003.6,0013.28,0005.28,0004.40
2021-10-21 19:10:00,,0832.1,5.00,0.00,25.0,24.3,00.0,34.0,26.8,16.6,0003.9,0013.45,0005.31,0004.42
2021-10-21 19:11:00,,0832.1,5.00,0.00,25.0,24.3,00.0,34.0,26.8,16.8,0003.5,0013.74,0005.36,0004.45
2021-10-21 19:12:00,,0832.1,5.01,0.00,25.0,24.3,00.0,34.0,26.8,16.2,0003.5,0013.57,0005.34,0004.48
2021-10-21 19:13:00,,0832.1,4.99,0.00,25.0,24.3,00.0,34.0,26.8,16.1,0003.8,0013.34,0005.37,0004.53
2021-10-21 19:14:00,,0832.1,5.00,0.00,25.0,24.3,00.0,34.0,26.8,16.7,0004.0,0014.01,0005.45,0004.59
2021-10-21 19:15:00,,0832.1,5.00,0.00,25.0,24.3,00.0,34.0,26.8,16.9,0004.0,0013.86,0005.52,0004.65
2021-10-21 19:16:00,,0832.0,5.01,0.00,25.0,24.3,00.0,34.0,26.8,17.4,0004.3,0013.83,0005.58,0004.72
2021-10-21 19:17:00,,0832.0,4.99,0.00,25.0,24.3,00.0,34.0,26.8,17.3,0004.3,0013.99,0005.70,0004.82
2021-10-21 19:18:00,,0832.1,5.00,0.00,25.0,24.3,00.0,34.0,26.8,17.1,0004.2,0014.12,0005.86,0004.91
2021-10-21 19:19:00,,0832.1,5.01,0.00,25.0,24.3,00.0,34.0,26.9,16.8,0004.2,0013.58,0006.00,0004.97
2021-10-21 19:20:00,,0832.1,4.98,0.00,25.0,24.4,00.0,34.0,26.9,16.8,0004.0,0013.13,0006.13,0005.04
2021-10-21 19:21:00,,0832.1,5.01,0.00,25.0,24.4,00.0,34.0,26.9,17.1,0003.6,0013.23,0006.27,0005.13
2021-10-21 19:22:00,,0832.1,5.01,0.00,25.0,24.4,00.0,34.0,26.9,17.4,0003.4,0013.63,0006.49,0005.24
2021-10-21 19:23:00,,0832.1,4.98,0.00,25.0,24.4,00.0,34.0,26.9,17.3,0003.5,0014.95,0006.75,0005.36
2021-10-21 19:24:00,,0832.1,5.02,0.00,25.0,24.4,00.0,34.1,26.9,17.0,0003.3,0015.87,0006.90,0005.43
2021-10-21 19:25:00,,0832.1,4.99,0.00,25.0,24.4,00.0,34.1,26.9,17.0,0002.8,0016.11,0006.99,0005.52
2021-10-21 19:26:00,,0832.1,5.00,0.00,25.0,24.4,00.0,34.1,26.9,16.6,0002.6,0016.96,0007.10,0005.56
2021-10-21 19:27:00,,0832.1,5.00,0.00,25.0,24.4,00.0,34.1,26.9,16.6,0002.6,0017.40,0007.16,0005.56
2021-10-21 19:28:00,,0832.1,4.99,0.00,25.0,24.4,00.0,34.1,26.9,16.7,0003.0,0017.42,0007.16,0005.54
2021-10-21 19:29:00,,0832.1,5.00,0.00,25.1,24.4,00.0,34.1,26.9,16.8,0003.4,0017.48,0007.15,0005.54
2021-10-21 19:30:00,,0832.1,5.00,0.00,25.1,24.4,00.0,34.1,27.0,17.0,0003.4,0017.11,0007.12,0005.59
2021-10-21 19:31:00,,0832.1,5.00,0.00,25.1,24.4,00.0,34.1,27.0,17.1,0004.4,0016.81,0007.09,0005.61
2021-10-21 19:32:00,,0832.1,5.00,0.00,25.1,24.5,00.0,34.1,27.0,17.3,0004.6,0016.88,0007.08,0005.61
2021-10-21 19:33:00,,0832.1,5.00,0.00,25.1,24.5,00.0,34.1,27.0,17.3,0004.8,0016.84,0007.05,0005.60
2021-10-21 19:34:00,,0832.1,5.00,0.00,25.1,24.5,00.0,34.1,27.0,17.4,0005.5,0015.87,0006.93,0005.58
2021-10-21 19:35:00,,0832.1,5.00,0.00,25.1,24.5,00.0,34.1,27.0,16.9,0005.5,0015.33,0006.88,0005.57
2021-10-21 19:36:00,,0832.1,4.99,0.00,25.1,24.5,00.0,34.1,27.0,17.1,0005.4,0015.63,0006.78,0005.54
2021-10-21 19:37:00,,0832.1,5.00,0.00,25.1,24.5,00.0,34.1,27.0,17.3,0005.3,0015.49,0006.73,0005.53
2021-10-21 19:38:00,,0832.1,4.99,0.00,25.1,24.5,00.0,34.1,27.0,17.3,0005.4,0015.43,0006.77,0005.58
2021-10-21 19:39:00,,0832.1,5.01,0.00,25.1,24.5,00.0,34.1,27.0,17.5,0005.2,0015.76,0006.82,0005.62
2021-10-21 19:40:00,,0832.1,5.01,0.00,25.1,24.5,00.0,34.1,27.0,17.6,0005.1,0016.09,0006.85,0005.63
2021-10-21 19:41:00,,0832.1,4.99,0.00,25.1,24.5,00.0,34.1,27.0,17.9,0004.8,0016.61,0006.83,0005.62
2021-10-21 19:42:00,,0832.1,5.00,0.00,25.1,24.5,00.0,34.1,27.0,18.2,0004.7,0016.99,0006.87,0005.62
2021-10-21 19:43:00,,0832.1,5.01,0.00,25.1,24.5,00.0,34.2,27.0,18.1,0004.7,0016.93,0006.85,0005.61
2021-10-21 19:44:00,,0832.1,4.99,0.00,25.1,24.5,00.0,34.2,27.0,17.8,0004.7,0016.78,0006.80,0005.58
2021-10-21 19:45:00,,0832.1,5.01,0.00,25.2,24.5,00.0,34.2,27.1,17.6,0004.4,0016.93,0006.81,0005.54
2021-10-21 19:46:00,,0832.1,5.00,0.00,25.2,24.5,00.0,34.2,27.1,17.5,0004.3,0017.03,0006.77,0005.51
2021-10-21 19:47:00,,0832.1,4.99,0.00,25.2,24.6,00.0,34.2,27.1,17.4,0004.5,0016.62,0006.78,0005.48
2021-10-21 19:48:00,,0832.1,4.99,0.00,25.2,24.6,00.0,34.2,27.1,17.3,0004.6,0015.93,0006.77,0005.45
2021-10-21 19:49:00,,0832.0,5.01,0.00,25.2,24.6,00.0,34.2,27.1,16.9,0004.8,0016.65,0006.72,0005.38
2021-10-21 19:50:00,,0832.1,4.99,0.00,25.2,24.6,00.0,34.2,27.1,16.6,0004.9,0016.63,0006.63,0005.30
2021-10-21 19:51:00,,0832.1,5.00,0.00,25.2,24.6,00.0,34.2,27.1,16.6,0005.0,0015.80,0006.53,0005.26
2021-10-21 19:52:00,,0832.1,5.00,0.00,25.2,24.6,00.0,34.2,27.1,16.5,0005.3,0015.35,0006.44,0005.21
2021-10-21 19:53:00,,0832.1,5.00,0.00,25.2,24.6,00.0,34.2,27.1,16.6,0005.4,0014.51,0006.41,0005.18
2021-10-21 19:54:00,,0832.1,5.00,0.00,25.3,24.6,00.0,34.2,27.1,16.7,0005.4,0014.22,0006.36,0005.14
2021-10-21 19:55:00,,0832.0,5.00,0.00,25.3,24.6,00.0,34.2,27.1,17.0,0005.3,0014.74,0006.34,0005.13
2021-10-21 19:56:00,,0832.0,4.99,0.00,25.3,24.7,00.0,34.2,27.1,17.1,0005.4,0014.66,0006.31,0005.14
2021-10-21 19:57:00,,0832.1,5.01,0.00,25.3,24.7,00.0,34.3,27.1,17.4,0005.3,0014.28,0006.31,0005.15
2021-10-21 19:58:00,,0832.1,5.00,0.00,25.3,24.7,00.0,34.3,27.1,16.9,0005.1,0014.73,0006.30,0005.14
2021-10-21 19:59:00,,0832.1,5.00,0.00,25.3,24.7,00.0,34.3,27.1,16.5,0005.1,0016.25,0006.30,0005.15
